N0LSD-13 Weather Reports


time (UTC)temp
C
wind
direction
speed
KPH
gust
KPH
rain 1hr
cm
rain 24hr
cm
rain mn
cm
humidity
%
barometer
mb
20260509211006 16 270 1.6 14.5 0.00 0.00 0.00 68 983.5
20260509210004 16 245 3.2 14.5 0.00 0.00 0.00 67 983.7
20260509205004 17 279 1.6 11.3 0.00 0.00 0.00 68 983.6
20260509204004 17 133 4.8 12.9 0.00 0.00 0.00 67 983.8
20260509202003 17 237 4.8 14.5 0.00 0.00 0.00 66 983.9
20260509201003 17 166 4.8 19.3 0.00 0.00 0.00 65 983.8
20260509200005 17 208 8.0 19.3 0.00 0.00 0.00 64 984.1
20260509195009 17 216 4.8 14.5 0.00 0.00 0.00 63 984.2
20260509194009 17 224 8.0 19.3 0.00 0.00 0.00 62 984.1
20260509193009 17 143 6.4 20.9 0.00 0.00 0.00 63 984.1
20260509190005 17 117 8.0 19.3 0.00 0.00 0.00 66 984.9
20260509185004 17 198 9.7 20.9 0.00 0.00 0.00 64 985.0
20260509184005 17 191 9.7 22.5 0.00 0.00 0.00 65 985.0
20260509183006 17 222 6.4 22.5 0.00 0.00 0.00 66 985.0
20260509182004 17 196 4.8 20.9 0.00 0.00 0.00 66 984.9
20260509181004 17 214 6.4 20.9 0.00 0.00 0.00 67 985.0
20260509180005 17 210 4.8 16.1 0.00 0.00 0.00 68 985.0
20260509175004 17 199 4.8 16.1 0.00 0.00 0.00 67 985.4
20260509174004 16 218 8.0 19.3 0.00 0.00 0.00 68 985.6
20260509173004 17 195 4.8 19.3 0.00 0.00 0.00 68 985.6
20260509172004 17 207 4.8 14.5 0.00 0.00 0.00 69 985.8
20260509170005 16 226 8.0 16.1 0.00 0.00 0.00 69 985.7
20260509165004 16 232 4.8 14.5 0.00 0.00 0.00 69 985.8
20260509164005 15 169 8.0 20.9 0.00 0.00 0.00 70 986.0
20260509163004 15 225 6.4 20.9 0.00 0.00 0.00 70 986.0
20260509162006 15 232 6.4 19.3 0.00 0.00 0.00 73 986.3
20260509161004 15 197 6.4 19.3 0.00 0.00 0.00 71 986.2
20260509160006 15 166 6.4 11.3 0.00 0.00 0.00 73 986.2
20260509155004 14 124 4.8 12.9 0.00 0.00 0.00 76 986.1
20260509154004 15 148 6.4 12.9 0.00 0.00 0.00 74 986.4
20260509152004 14 208 4.8 14.5 0.00 0.00 0.00 76 986.3
20260509151005 14 183 4.8 14.5 0.00 0.00 0.00 78 986.4
20260509150004 14 230 4.8 12.9 0.00 0.00 0.00 78 986.5
20260509145005 13 215 4.8 11.3 0.00 0.00 0.00 79 986.5
20260509142004 13 204 4.8 14.5 0.00 0.00 0.00 78 986.5
20260509141004 13 195 3.2 12.9 0.00 0.00 0.00 80 986.8
20260509135004 13 1 3.2 11.3 0.00 0.00 0.00 82 987.0
20260509134004 13 189 4.8 9.7 0.00 0.00 0.00 82 986.9
20260509130005 12 103 3.2 9.7 0.00 0.00 0.00 82 986.8
20260509123005 11 304 0.0 4.8 0.00 0.00 0.00 85 987.1
20260509122006 11 281 1.6 3.2 0.00 0.00 0.00 86 987.3
20260509121004 10 297 1.6 3.2 0.00 0.00 0.00 86 987.2
20260509115004 10 0 1.6 3.2 0.00 0.00 0.00 88 987.3
20260509113004 8 337 1.6 1.6 0.00 0.03 0.00 88 987.3
20260509111007 8 337 0.0 1.6 0.00 0.08 0.00 89 987.5
20260509105004 7 335 0.0 1.6 0.00 0.13 0.00 89 987.6
20260509104004 6 335 0.0 0.0 0.00 0.13 0.00 90 987.6
20260509103004 6 335 0.0 0.0 0.00 0.13 0.00 89 987.5
20260509102004 6 335 0.0 0.0 0.00 0.13 0.00 89 987.5
20260509101004 6 335 0.0 0.0 0.00 0.13 0.00 88 987.3
20260509100005 6 335 0.0 0.0 0.00 0.15 0.00 87 987.4
20260509093005 6 335 0.0 0.0 0.00 0.18 0.00 84 987.4
20260509091004 7 335 0.0 1.6 0.00 0.18 0.00 83 987.5
20260509090004 7 335 0.0 1.6 0.00 0.18 0.00 83 987.5
20260509085004 7 335 0.0 1.6 0.00 0.18 0.00 82 987.5
20260509084005 7 335 0.0 0.0 0.00 0.18 0.00 81 987.7
20260509083004 7 335 0.0 0.0 0.00 0.18 0.00 80 987.7
20260509082004 7 335 0.0 1.6 0.00 0.18 0.00 78 987.5
20260509081005 7 335 0.0 1.6 0.00 0.18 0.00 77 987.6
20260509080005 7 333 0.0 3.2 0.00 0.18 0.00 77 987.8
20260509075005 7 331 0.0 0.0 0.00 0.18 0.00 76 987.9
20260509074004 6 331 0.0 1.6 0.00 0.18 0.00 75 987.8
20260509071004 6 328 0.0 1.6 0.00 0.18 0.00 73 988.3
20260509070004 6 328 0.0 0.0 0.00 0.18 0.00 72 988.1
20260509065005 6 328 0.0 1.6 0.00 0.18 0.00 71 988.1
20260509064005 6 328 0.0 1.6 0.00 0.18 0.00 71 988.4
20260509063005 6 328 0.0 1.6 0.00 0.18 0.00 70 988.5
20260509062005 7 328 0.0 1.6 0.00 0.18 0.00 68 988.8
20260509060005 6 327 0.0 1.6 0.00 0.18 0.00 69 988.9
20260509055004 6 327 0.0 1.6 0.00 0.18 0.00 67 989.1
20260509053004 7 328 0.0 0.0 0.00 0.18 0.00 66 989.3
20260509052004 7 327 0.0 3.2 0.00 0.18 0.00 65 989.3
20260509051005 7 334 0.0 3.2 0.00 0.18 0.00 63 989.3
20260509050004 7 323 0.0 1.6 0.00 0.18 0.00 65 989.5
20260509045004 6 322 0.0 0.0 0.00 0.18 0.00 65 989.5
20260509044004 6 322 0.0 0.0 0.00 0.18 0.00 65 989.6
20260509043005 6 322 0.0 0.0 0.00 0.18 0.00 63 989.8
20260509042004 7 323 0.0 0.0 0.00 0.18 0.00 62 989.9
20260509040004 7 321 1.6 1.6 0.00 0.18 0.00 60 989.6
20260509035004 6 269 0.0 1.6 0.00 0.18 0.18 62 990.1
20260509033006 5 269 0.0 0.0 0.00 0.18 0.18 66 990.2
20260509031005 6 269 0.0 0.0 0.00 0.18 0.18 61 990.3
20260509030004 6 269 0.0 0.0 0.00 0.18 0.18 61 990.3
20260509025004 6 269 0.0 0.0 0.00 0.18 0.18 58 990.5
20260509023006 7 269 0.0 0.0 0.00 0.18 0.18 55 990.4
20260509021005 7 269 0.0 0.0 0.00 0.18 0.18 53 990.6
20260509020004 7 269 0.0 0.0 0.00 0.18 0.18 48 990.4
20260509015005 7 269 0.0 0.0 0.00 0.18 0.18 45 990.1
20260509014005 8 269 0.0 0.0 0.00 0.20 0.18 46 990.2
20260509013004 8 269 0.0 0.0 0.00 0.23 0.18 46 990.2
20260509012004 8 269 0.0 0.0 0.00 0.23 0.18 45 990.0
20260509011005 8 269 0.0 0.0 0.00 0.25 0.18 39 990.1
20260509010004 9 269 0.0 0.0 0.00 0.30 0.18 41 990.3
20260509005004 10 269 0.0 1.6 0.00 0.33 0.18 39 990.2
20260509004004 10 270 1.6 3.2 0.00 0.33 0.18 37 990.2
20260509003004 10 272 1.6 3.2 0.00 0.33 0.18 36 990.1
20260509002004 11 277 0.0 3.2 0.00 0.33 0.18 36 989.8
20260509001003 11 283 1.6 3.2 0.00 0.33 0.18 35 989.9
20260508235005 12 282 1.6 8.0 0.00 0.33 0.18 32 990.0
20260508234004 12 268 1.6 8.0 0.00 0.33 0.18 32 989.8
20260508233005 12 266 3.2 8.0 0.00 0.33 0.18 32 989.9
20260508232004 12 246 3.2 8.0 0.00 0.33 0.18 29 989.8
20260508231004 13 270 3.2 11.3 0.00 0.33 0.18 29 990.0
20260508225004 12 239 3.2 8.0 0.00 0.33 0.18 35 989.6
20260508224004 12 276 3.2 9.7 0.00 0.33 0.18 36 989.9
20260508223004 13 260 3.2 11.3 0.00 0.33 0.18 37 990.2
20260508222005 13 195 6.4 11.3 0.00 0.33 0.18 36 990.0
20260508220006 13 204 3.2 12.9 0.00 0.33 0.18 36 990.1
20260508215005 13 242 4.8 11.3 0.00 0.33 0.18 35 989.9
20260508214004 13 165 4.8 9.7 0.00 0.33 0.18 36 990.1
20260508213004 12 254 3.2 11.3 0.00 0.33 0.18 38 990.1
20260508212004 12 143 4.8 11.3 0.00 0.33 0.18 39 990.1